Date String (YYYY-MM-DD hh:mm:ss) UTC,Instrument flags,Ambient pressure (hPa),Sample flow (lpm),Bypass flow (lpm),Sample temperature (°C),Ambient temperature (°C),ASC tube jacket temperature (°C),LED temperature (°C),Box temperature (°C),Sample RH (%),Span deviation,Mass concentration (μg/m³),Mass concentration (μg/m³),Mass concentration (μg/m³)
DateTimeUTC,F1_M11,P_M11,Q1_M11,Q2_M11,T1_M11,T2_M11,T3_M11,T4_M11,T5_M11,U1_M11,ZSPAN_M11,X0_M11,X2_M11,X1_M11
2023-01-22 03:00:00,,0823.3,5.00,0.00,21.0,19.1,00.0,30.0,22.4,13.0,0000.0,0010.98,0007.56,0007.18
2023-01-22 03:01:00,,0823.2,5.00,0.00,21.1,20.5,00.0,29.9,22.8,12.9,0000.0,0011.15,0007.56,0007.20
2023-01-22 03:02:00,,0823.2,5.01,0.00,21.2,21.8,00.0,29.9,23.1,12.8,0000.0,0011.23,0007.60,0007.23
2023-01-22 03:03:00,,0823.2,4.99,0.00,21.4,22.1,00.0,30.0,23.3,12.8,0000.0,0011.17,0007.62,0007.27
2023-01-22 03:04:00,,0823.2,5.00,0.00,21.4,21.4,00.0,30.0,23.2,12.6,0000.0,0011.11,0007.58,0007.26
2023-01-22 03:05:00,,0823.2,5.02,0.00,21.4,20.8,00.0,30.1,23.1,12.3,0000.0,0010.99,0007.53,0007.21
2023-01-22 03:06:00,,0823.1,5.00,0.00,21.3,20.3,00.0,30.1,23.0,12.5,0000.0,0010.97,0007.50,0007.19
2023-01-22 03:07:00,,0823.2,5.00,0.00,21.3,19.8,00.0,30.1,22.9,12.6,0000.0,0011.02,0007.50,0007.19
2023-01-22 03:08:00,,0823.1,5.00,0.00,21.3,19.5,00.0,30.1,22.8,12.3,0000.0,0010.93,0007.45,0007.14
2023-01-22 03:09:00,,0823.1,5.01,0.00,21.2,19.4,00.0,30.0,22.8,11.9,0000.0,0010.86,0007.32,0007.01
2023-01-22 03:10:00,,0823.1,4.99,0.00,21.2,19.3,00.0,30.0,22.8,11.5,0000.0,0010.71,0007.14,0006.81
2023-01-22 03:11:00,,0823.1,4.99,0.00,21.2,19.3,00.0,30.0,22.7,11.2,0000.0,0009.88,0006.90,0006.58
2023-01-22 03:12:00,,0823.1,5.00,0.00,21.2,19.3,00.0,30.0,22.8,11.1,0000.0,0009.41,0006.67,0006.37
2023-01-22 03:13:00,,0823.1,4.99,0.00,21.2,19.3,00.0,30.0,22.7,11.2,0000.0,0009.14,0006.47,0006.18
2023-01-22 03:14:00,,0823.1,5.01,0.00,21.1,19.3,00.0,30.0,22.8,11.4,0000.0,0008.97,0006.29,0005.99
2023-01-22 03:15:00,,0823.1,5.00,0.00,21.1,19.6,00.0,30.0,22.8,11.4,0000.0,0008.99,0006.15,0005.85
2023-01-22 03:16:00,,0823.1,5.01,0.00,21.2,20.9,00.0,30.0,23.0,11.0,0000.0,0008.92,0005.99,0005.70
2023-01-22 03:17:00,,0823.1,5.00,0.00,21.4,22.0,00.0,30.0,23.3,10.5,0000.0,0009.00,0005.73,0005.44
2023-01-22 03:18:00,,0823.0,4.99,0.00,21.4,21.8,00.0,30.0,23.4,10.1,0000.0,0008.65,0005.40,0005.14
2023-01-22 03:19:00,,0822.9,5.00,0.00,21.5,21.4,00.0,30.1,23.4,10.3,0000.0,0008.46,0005.20,0004.93
2023-01-22 03:20:00,,0822.9,5.00,0.00,21.5,21.0,00.0,30.1,23.3,09.9,0000.0,0008.27,0005.04,0004.76
2023-01-22 03:21:00,,0823.0,5.01,0.00,21.5,20.7,00.0,30.1,23.2,09.6,0000.0,0008.05,0004.84,0004.58
2023-01-22 03:22:00,,0823.0,5.01,0.00,21.5,20.5,00.0,30.1,23.2,09.6,0000.0,0007.96,0004.73,0004.46
2023-01-22 03:23:00,,0823.0,5.00,0.00,21.5,20.3,00.0,30.2,23.2,09.4,0000.0,0007.81,0004.57,0004.31
2023-01-22 03:24:00,,0823.0,5.01,0.00,21.5,20.2,00.0,30.2,23.2,09.4,0000.0,0007.72,0004.40,0004.15
2023-01-22 03:25:00,,0822.9,5.00,0.00,21.5,20.1,00.0,30.2,23.2,09.4,0000.0,0007.65,0004.23,0003.97
2023-01-22 03:26:00,,0822.9,5.00,0.00,21.5,20.0,00.0,30.2,23.2,09.2,0000.0,0007.23,0004.01,0003.74
2023-01-22 03:27:00,,0823.0,4.99,0.00,21.5,20.0,00.0,30.2,23.1,09.2,0000.0,0006.79,0003.83,0003.56
2023-01-22 03:28:00,,0823.0,5.01,0.00,21.5,20.0,00.0,30.2,23.1,09.4,0000.0,0006.04,0003.77,0003.48
2023-01-22 03:29:00,,0823.0,5.00,0.00,21.5,20.0,00.0,30.2,23.1,09.4,0000.0,0005.81,0003.71,0003.42
2023-01-22 03:30:00,,0822.9,5.00,0.00,21.5,20.0,00.0,30.2,23.1,09.3,0000.0,0005.74,0003.62,0003.33
2023-01-22 03:31:00,,0823.0,4.99,0.00,21.5,20.0,00.0,30.2,23.2,09.2,0000.0,0005.40,0003.50,0003.25
2023-01-22 03:32:00,,0823.0,5.01,0.00,21.5,20.0,00.0,30.2,23.2,09.3,0000.0,0005.45,0003.49,0003.24
2023-01-22 03:33:00,,0823.0,4.99,0.00,21.5,20.2,00.0,30.2,23.2,09.4,0000.0,0005.33,0003.47,0003.24
2023-01-22 03:34:00,,0823.0,5.01,0.00,21.5,21.2,00.0,30.2,23.4,09.5,0000.0,0005.44,0003.50,0003.27
2023-01-22 03:35:00,,0823.0,4.99,0.00,21.7,22.3,00.0,30.2,23.7,09.3,0000.0,0005.43,0003.53,0003.29
2023-01-22 03:36:00,,0822.9,4.99,0.00,21.8,22.2,00.0,30.3,23.8,09.2,0000.0,0005.05,0003.49,0003.27
2023-01-22 03:37:00,,0822.9,5.00,0.00,21.8,21.8,00.0,30.3,23.7,09.1,0000.0,0005.03,0003.49,0003.27
2023-01-22 03:38:00,,0822.9,4.97,0.00,21.8,21.5,00.0,30.4,23.7,09.1,0000.0,0005.37,0003.53,0003.29
2023-01-22 03:39:00,,0822.8,5.03,0.00,21.8,21.2,00.0,30.4,23.7,09.1,0000.0,0006.10,0003.52,0003.28
2023-01-22 03:40:00,,0822.8,5.00,0.00,21.8,21.0,00.0,30.4,23.6,09.1,0000.0,0006.14,0003.52,0003.26
2023-01-22 03:41:00,,0822.7,5.00,0.00,21.8,20.8,00.0,30.4,23.6,09.1,0000.0,0005.99,0003.49,0003.24
2023-01-22 03:42:00,,0822.7,5.00,0.00,21.8,20.6,00.0,30.5,23.6,09.0,0000.0,0006.05,0003.51,0003.25
2023-01-22 03:43:00,,0822.7,5.00,0.00,21.8,20.5,00.0,30.5,23.5,09.0,0000.0,0005.88,0003.47,0003.22
2023-01-22 03:44:00,,0822.6,5.00,0.00,21.8,20.4,00.0,30.5,23.5,09.1,0000.0,0005.87,0003.45,0003.19
2023-01-22 03:45:00,,0822.6,5.00,0.00,21.8,20.3,00.0,30.5,23.5,09.0,0000.0,0005.66,0003.39,0003.14
2023-01-22 03:46:00,,0822.6,5.01,0.00,21.8,20.3,00.0,30.5,23.5,08.6,0000.0,0005.41,0003.30,0003.00
2023-01-22 03:47:00,,0822.6,5.00,0.00,21.8,20.3,00.0,30.5,23.5,08.6,0000.0,0005.31,0003.23,0002.86
2023-01-22 03:48:00,,0822.6,4.99,0.00,21.8,20.3,00.0,30.5,23.5,08.6,0000.0,0005.31,0003.18,0002.76
2023-01-22 03:49:00,,0822.6,5.00,0.00,21.8,20.3,00.0,30.5,23.5,08.7,0000.0,0005.02,0003.08,0002.64
2023-01-22 03:50:00,,0822.6,5.02,0.00,21.8,20.3,00.0,30.5,23.5,08.8,0000.0,0004.09,0002.97,0002.53
2023-01-22 03:51:00,,0822.6,5.01,0.00,21.8,20.3,00.0,30.5,23.4,08.9,0000.0,0004.11,0002.94,0002.49
2023-01-22 03:52:00,,0822.6,5.01,0.00,21.8,20.2,00.0,30.5,23.4,08.9,0000.0,0004.16,0002.93,0002.47
2023-01-22 03:53:00,,0822.6,4.99,0.00,21.7,20.2,00.0,30.5,23.4,08.9,0000.0,0004.10,0002.85,0002.39
2023-01-22 03:54:00,,0822.6,5.00,0.00,21.7,20.4,00.0,30.5,23.4,09.0,0000.0,0004.05,0002.81,0002.35
2023-01-22 03:55:00,,0822.7,5.00,0.00,21.8,21.4,00.0,30.5,23.7,09.2,0000.0,0004.12,0002.82,0002.36
2023-01-22 03:56:00,,0822.6,4.99,0.00,21.9,22.3,00.0,30.5,23.9,09.0,0000.0,0004.55,0002.84,0002.35
2023-01-22 03:57:00,,0822.6,4.99,0.00,22.0,22.1,00.0,30.6,24.0,08.9,0000.0,0004.64,0002.91,0002.43
2023-01-22 03:58:00,,0822.5,5.00,0.00,22.0,21.7,00.0,30.6,23.9,09.0,0000.0,0004.85,0003.06,0002.57
2023-01-22 03:59:00,,0822.6,5.01,0.00,22.0,21.4,00.0,30.6,23.8,08.9,0000.0,0004.81,0003.13,0002.66
